This demonstration page uses our WeatherBlox Daily Observations layout. Learn more.

Left ArrowRight Arrow

Hourly Observations for July 3, 2019

Temp ( °F °C ) Dew Point ( °F °C ) Humidity (%) Winds ( mph kmh ) Pressure ( in mb ) Visibility ( mi km ) Precip ( " mm )
12:56 am 00:56 Clear 72 22.2 69 20.6 91 91 ESE 7 11 29.84 1010 10 16 0.00 0.00
1:56 am 01:56 Clear 71 21.7 68 20 90 90 NE 6 9 29.80 1009 10 16 0.00 0.00
2:56 am 02:56 Clear 71 21.7 68 20 90 90 Calm 29.79 1009 10 16 0.00 0.00
3:56 am 03:56 Clear 70 21.1 68 20 93 93 SE 6 9 29.79 1009 10 16 0.00 0.00
4:56 am 04:56 Clear 69 20.6 68 20 96 96 Calm 29.79 1009 10 16 0.00 0.00
5:56 am 05:56 Mostly Clear 70 21.1 68 20 93 93 Calm 29.79 1009 10 16 0.00 0.00
6:56 am 06:56 Sunny 70 21.1 69 20.6 97 97 Calm 29.80 1009 10 16 0.00 0.00
7:56 am 07:56 Sunny 72 22.2 69 20.6 91 91 S 5 7 29.80 1009 10 16 0.00 0.00
8:56 am 08:56 Sunny 77 25 68 20 74 74 S 10 17 29.81 1009 10 16 0.00 0.00
9:56 am 09:56 Sunny 78 25.6 68 20 71 71 SSW 6 9 29.81 1010 10 16 0.00 0.00
10:56 am 10:56 Sunny 82 27.8 68 20 63 63 WSW 6 9 29.82 1010 10 16 0.00 0.00
11:56 am 11:56 Sunny 84 28.9 69 20.6 61 61 ESE 5 7 29.82 1010 10 16 0.00 0.00
12:56 pm 12:56 Mostly Sunny 85 29.4 69 20.6 59 59 ESE 8 13 29.80 1009 10 16 0.00 0.00
1:56 pm 13:56 Partly Cloudy 87 30.6 68 20 53 53 Calm 29.79 1009 10 16 0.00 0.00
2:56 pm 14:56 Mostly Cloudy 89 31.7 68 20 50 50 SE 13 20 29.79 1009 10 16 0.00 0.00
3:56 pm 15:56 Sunny 89 31.7 67 19.4 48 48 SE 13 20 29.77 1008 10 16 0.00 0.00
4:56 pm 16:56 Partly Cloudy 89 31.7 66 18.9 47 47 S 14 22 29.75 1008 10 16 0.00 0.00
5:56 pm 17:56 Sunny 88 31.1 67 19.4 50 50 SSE 12 19 29.74 1007 10 16 0.00 0.00
6:56 pm 18:56 Sunny 86 30 68 20 55 55 S 14 22 29.74 1007 10 16 0.00 0.00
7:56 pm 19:56 Sunny 83 28.3 70 21.1 65 65 SSE 10 17 29.74 1007 10 16 0.00 0.00
8:56 pm 20:56 Sunny 80 26.7 70 21.1 71 71 SSE 14 22 29.76 1008 10 16 0.00 0.00
9:56 pm 21:56 Clear 77 25 70 21.1 79 79 SSE 10 17 29.78 1009 10 16 0.00 0.00
10:56 pm 22:56 Clear 74 23.3 69 20.6 85 85 SE 6 9 29.81 1010 10 16 0.00 0.00
11:56 pm 23:56 Clear 72 22.2 69 20.6 91 91 E 5 7 29.82 1010 10 16 0.00 0.00

Powered by AerisWeather